Location: Asheville, NC
(35.6000°N, 82.5500°W)
Time: 17:20:14

AO-7 - Pass Details

Date: 14 March 2018
Orbit: 1440 x 1459 km, 101.7° (Epoch: 18 March)

Event Time Altitude Azimuth Distance (km) Brightness Sun altitude
Rises 07:00:18 0° 2° (N) 4,544 ? -9.4°
Reaches altitude 10° 07:03:55 10° 348° (NNW) 3,560 ? -8.6°
Maximum altitude 07:09:32 21° 305° (NW) 2,808 ? -7.5°
Drops below altitude 10° 07:15:08 10° 261° (W) 3,547 ? -6.4°
Enters shadow 07:16:59 - 252° (WSW) 4,016 ? -6.0°
